nws-alerts: Checking more than four warning/county codes can delay the loading of your pages. You should use a cron job to get the data.
EllijayWeather Station Historical Data
Daily Summary for January 29, 2019 Units:  English    Metric   Both
Daily Weekly Monthly Yearly Custom
  High: Low: Average:
Temperature: 46.2 °F 21.0 °F 33.9 °F
Dew Point: 40.8 °F 10.9 °F 27.4 °F
Humidity: 96% 55% 78%
Wind Speed: 8.1mph 0.0mph 0.5mph
Wind Gust: 12.0mph - -
Wind- - West
Pressure: 30.21 in 29.90 in -
Precipitation: 0.11 in    
Historical Graphs
 
 
Tabular Data for January 29, 2019
Time Temperature Dew Point Pressure Wind Wind Speed Wind Gust Humidity Rainfall Rate (Hourly) solar
00:04 46.2 °F 36.3 °F 29.98 in Calm     68% 0.00 in meteobridge W/m2
00:09 46.2 °F 36.7 °F 29.97 in Calm     69% 0.00 in meteobridge W/m2
00:14 46.0 °F 36.9 °F 29.97 in Calm     70% 0.00 in meteobridge W/m2
00:19 46.0 °F 37.2 °F 29.97 in Calm     71% 0.00 in meteobridge W/m2
00:23 45.9 °F 37.0 °F 29.97 in Calm     71% 0.00 in meteobridge W/m2
00:29 45.7 °F 37.2 °F 29.97 in Calm     72% 0.00 in meteobridge W/m2
00:34 45.3 °F 37.2 °F 29.96 in Calm     73% 0.00 in meteobridge W/m2
00:39 45.1 °F 37.4 °F 29.96 in Calm     74% 0.00 in meteobridge W/m2
00:44 45.0 °F 37.9 °F 29.96 in Calm     76% 0.00 in meteobridge W/m2
00:49 45.0 °F 37.9 °F 29.96 in Calm     76% 0.00 in meteobridge W/m2
00:54 44.8 °F 37.4 °F 29.96 in Calm     75% 0.00 in meteobridge W/m2
00:59 44.4 °F 37.6 °F 29.96 in Calm     77% 0.00 in meteobridge W/m2
01:04 44.2 °F 37.6 °F 29.96 in Calm     77% 0.00 in meteobridge W/m2
01:09 44.1 °F 37.9 °F 29.96 in Calm     79% 0.00 in meteobridge W/m2
01:14 44.1 °F 37.9 °F 29.96 in Calm     79% 0.00 in meteobridge W/m2
01:19 43.9 °F 37.8 °F 29.95 in Calm     79% 0.00 in meteobridge W/m2
01:24 43.9 °F 37.2 °F 29.95 in Calm     77% 0.00 in meteobridge W/m2
01:29 43.7 °F 37.2 °F 29.95 in Calm     78% 0.00 in meteobridge W/m2
01:34 43.7 °F 37.9 °F 29.95 in Calm     80% 0.00 in meteobridge W/m2
01:39 43.5 °F 37.8 °F 29.95 in Calm     80% 0.00 in meteobridge W/m2
01:44 43.3 °F 37.9 °F 29.95 in Calm     81% 0.00 in meteobridge W/m2
01:49 43.3 °F 38.3 °F 29.95 in Calm     82% 0.00 in meteobridge W/m2
01:54 43.3 °F 38.8 °F 29.95 in Calm     84% 0.00 in meteobridge W/m2
01:59 43.2 °F 39.0 °F 29.95 in Calm     85% 0.01 in meteobridge W/m2
02:04 43.0 °F 39.0 °F 29.94 in Calm     86% 0.01 in meteobridge W/m2
02:09 42.6 °F 39.0 °F 29.94 in Calm     87% 0.01 in meteobridge W/m2
02:14 42.6 °F 39.4 °F 29.94 in Calm     88% 0.01 in meteobridge W/m2
02:18 42.4 °F 39.4 °F 29.94 in Calm     89% 0.01 in meteobridge W/m2
02:24 42.4 °F 39.7 °F 29.94 in Calm     90% 0.01 in meteobridge W/m2
02:29 42.3 °F 39.7 °F 29.95 in Calm     91% 0.01 in meteobridge W/m2
02:34 42.3 °F 40.1 °F 29.95 in Calm     92% 0.02 in meteobridge W/m2
02:39 42.1 °F 39.9 °F 29.95 in Calm     92% 0.02 in meteobridge W/m2
02:44 42.1 °F 40.3 °F 29.94 in Calm     93% 0.02 in meteobridge W/m2
02:49 41.9 °F 40.1 °F 29.94 in Calm     93% 0.02 in meteobridge W/m2
02:53 41.7 °F 39.9 °F 29.94 in Calm     93% 0.02 in meteobridge W/m2
02:59 41.7 °F 40.1 °F 29.94 in Calm     94% 0.01 in meteobridge W/m2
03:04 41.5 °F 39.9 °F 29.94 in Calm     94% 0.02 in meteobridge W/m2
03:09 41.5 °F 39.9 °F 29.94 in Calm     94% 0.02 in meteobridge W/m2
03:14 41.5 °F 39.9 °F 29.93 in Calm     94% 0.02 in meteobridge W/m2
03:19 41.5 °F 39.9 °F 29.94 in Calm     94% 0.02 in meteobridge W/m2
03:24 41.5 °F 39.9 °F 29.93 in Calm     94% 0.02 in meteobridge W/m2
03:29 41.4 °F 39.7 °F 29.93 in Calm     94% 0.02 in meteobridge W/m2
03:34 41.4 °F 40.1 °F 29.93 in Calm     95% 0.01 in meteobridge W/m2
03:39 41.4 °F 40.1 °F 29.93 in Calm     95% 0.01 in meteobridge W/m2
03:44 41.4 °F 40.1 °F 29.93 in Calm     95% 0.01 in meteobridge W/m2
03:49 41.4 °F 40.1 °F 29.93 in Calm     95% 0.01 in meteobridge W/m2
03:54 41.4 °F 40.1 °F 29.93 in Calm     95% 0.01 in meteobridge W/m2
03:59 41.4 °F 40.1 °F 29.93 in Calm     95% 0.01 in meteobridge W/m2
04:04 41.4 °F 40.1 °F 29.92 in Calm     95% 0.00 in meteobridge W/m2
04:09 41.4 °F 40.1 °F 29.92 in Calm     95% 0.00 in meteobridge W/m2
04:14 41.2 °F 39.9 °F 29.92 in Calm     95% 0.00 in meteobridge W/m2
04:19 41.2 °F 39.9 °F 29.92 in Calm     95% 0.00 in meteobridge W/m2
04:24 41.2 °F 40.1 °F 29.92 in Calm     96% 0.00 in meteobridge W/m2
04:29 41.2 °F 40.1 °F 29.92 in Calm     96% 0.00 in meteobridge W/m2
04:34 41.2 °F 40.1 °F 29.91 in Calm     96% 0.00 in meteobridge W/m2
04:39 41.2 °F 40.1 °F 29.91 in Calm     96% 0.00 in meteobridge W/m2
04:44 41.4 °F 40.3 °F 29.92 in Calm     96% 0.00 in meteobridge W/m2
04:49 41.2 °F 40.1 °F 29.92 in Calm     96% 0.00 in meteobridge W/m2
04:54 41.4 °F 40.3 °F 29.91 in Calm     96% 0.00 in meteobridge W/m2
04:59 41.4 °F 40.3 °F 29.91 in Calm     96% 0.00 in meteobridge W/m2
05:04 41.4 °F 40.3 °F 29.91 in Calm     96% 0.00 in meteobridge W/m2
05:09 41.4 °F 40.3 °F 29.91 in Calm     96% 0.00 in meteobridge W/m2
05:14 41.4 °F 40.3 °F 29.91 in Calm     96% 0.00 in meteobridge W/m2
05:19 41.4 °F 40.3 °F 29.91 in Calm     96% 0.00 in meteobridge W/m2
05:24 41.4 °F 40.3 °F 29.91 in Calm     96% 0.00 in meteobridge W/m2
05:29 41.4 °F 40.3 °F 29.91 in Calm     96% 0.00 in meteobridge W/m2
05:34 41.5 °F 40.5 °F 29.91 in Calm     96% 0.00 in meteobridge W/m2
05:39 41.5 °F 40.5 °F 29.91 in Calm     96% 0.00 in meteobridge W/m2
05:44 41.5 °F 40.5 °F 29.91 in Calm     96% 0.00 in meteobridge W/m2
05:49 41.7 °F 40.6 °F 29.91 in Calm     96% 0.00 in meteobridge W/m2
05:54 41.7 °F 40.5 °F 29.91 in Calm     95% 0.00 in meteobridge W/m2
05:59 41.9 °F 40.6 °F 29.91 in Calm     95% 0.00 in meteobridge W/m2
06:04 42.1 °F 40.8 °F 29.90 in Calm     95% 0.00 in meteobridge W/m2
06:09 42.1 °F 40.8 °F 29.91 in Calm     95% 0.00 in meteobridge W/m2
06:14 42.1 °F 40.8 °F 29.91 in Calm     95% 0.00 in meteobridge W/m2
06:19 42.3 °F 40.6 °F 29.90 in Calm     94% 0.00 in meteobridge W/m2
06:24 42.3 °F 40.5 °F 29.91 in Calm     93% 0.00 in meteobridge W/m2
06:29 42.3 °F 40.5 °F 29.91 in Calm   2.0 mph 93% 0.00 in meteobridge W/m2
06:34 42.4 °F 40.6 °F 29.91 in Calm     93% 0.00 in meteobridge W/m2
06:39 42.4 °F 40.8 °F 29.91 in Calm     94% 0.00 in meteobridge W/m2
06:44 42.4 °F 40.8 °F 29.91 in Calm     94% 0.00 in meteobridge W/m2
06:49 42.4 °F 40.8 °F 29.92 in Calm     94% 0.00 in meteobridge W/m2
06:54 42.3 °F 40.6 °F 29.92 in Calm   1.0 mph 94% 0.00 in meteobridge W/m2
06:59 42.1 °F 40.3 °F 29.92 in Calm   2.0 mph 93% 0.00 in meteobridge W/m2
07:04 42.1 °F 40.3 °F 29.92 in Calm     93% 0.00 in meteobridge W/m2
07:09 41.9 °F 40.1 °F 29.93 in Calm     93% 0.00 in meteobridge W/m2
07:14 41.7 °F 39.9 °F 29.93 in NE 0.9 mph 2.0 mph 93% 0.00 in meteobridge W/m2
07:19 41.5 °F 39.7 °F 29.94 in Calm   3.0 mph 93% 0.01 in meteobridge W/m2
07:24 41.4 °F 39.6 °F 29.94 in Calm   2.0 mph 93% 0.01 in meteobridge W/m2
07:29 41.2 °F 39.6 °F 29.94 in Calm     94% 0.02 in meteobridge W/m2
07:34 40.8 °F 39.0 °F 29.94 in Calm     93% 0.02 in meteobridge W/m2
07:39 40.6 °F 38.8 °F 29.94 in Calm   2.0 mph 93% 0.02 in meteobridge W/m2
07:44 40.5 °F 38.8 °F 29.94 in Calm     94% 0.03 in meteobridge W/m2
07:49 40.3 °F 38.7 °F 29.94 in Calm     94% 0.03 in meteobridge W/m2
07:54 39.9 °F 38.3 °F 29.94 in Calm   4.0 mph 94% 0.03 in meteobridge W/m2
07:59 39.7 °F 38.5 °F 29.95 in Calm     95% 0.04 in meteobridge W/m2
08:04 39.7 °F 38.5 °F 29.95 in Calm     95% 0.04 in meteobridge W/m2
08:09 39.6 °F 38.3 °F 29.95 in Calm     95% 0.04 in meteobridge W/m2
08:14 39.6 °F 38.3 °F 29.96 in Calm     95% 0.04 in meteobridge W/m2
08:19 39.4 °F 38.1 °F 29.96 in Calm   4.0 mph 95% 0.03 in meteobridge W/m2
08:24 39.2 °F 37.9 °F 29.96 in Calm     95% 0.04 in meteobridge W/m2
08:29 38.8 °F 37.2 °F 29.96 in Calm   1.0 mph 94% 0.03 in meteobridge W/m2
08:34 38.7 °F 37.0 °F 29.96 in Calm     94% 0.04 in meteobridge W/m2
08:39 38.5 °F 36.9 °F 29.96 in Calm     94% 0.04 in meteobridge W/m2
08:44 38.1 °F 36.3 °F 29.97 in Calm     93% 0.03 in meteobridge W/m2
08:49 37.9 °F 36.1 °F 29.97 in Calm     93% 0.03 in meteobridge W/m2
08:54 37.6 °F 35.8 °F 29.97 in NW 2.9 mph 3.0 mph 93% 0.03 in meteobridge W/m2
08:59 37.2 °F 35.4 °F 29.97 in Calm   2.0 mph 93% 0.02 in meteobridge W/m2
09:04 37.0 °F 35.4 °F 29.98 in Calm   1.0 mph 94% 0.02 in meteobridge W/m2
09:09 37.0 °F 35.4 °F 29.98 in NW 2.0 mph 2.0 mph 94% 0.03 in meteobridge W/m2
09:14 36.7 °F 35.1 °F 29.98 in Calm   2.0 mph 94% 0.03 in meteobridge W/m2
09:19 36.7 °F 35.1 °F 29.99 in Calm   3.0 mph 94% 0.03 in meteobridge W/m2
09:24 36.3 °F 34.7 °F 29.99 in WNW 2.0 mph 4.0 mph 94% 0.02 in meteobridge W/m2
09:29 36.1 °F 34.5 °F 29.99 in Calm     94% 0.02 in meteobridge W/m2
09:34 36.1 °F 34.5 °F 30.00 in Calm   1.0 mph 94% 0.01 in meteobridge W/m2
09:39 36.0 °F 34.3 °F 30.00 in WNW 2.0 mph 2.0 mph 94% 0.01 in meteobridge W/m2
09:44 35.6 °F 34.0 °F 30.00 in Calm   2.0 mph 94% 0.02 in meteobridge W/m2
09:49 35.4 °F 33.8 °F 30.00 in Calm   2.0 mph 94% 0.02 in meteobridge W/m2
09:54 35.2 °F 33.6 °F 30.01 in Calm   1.0 mph 94% 0.02 in meteobridge W/m2
09:59 35.1 °F 33.4 °F 30.02 in Calm   4.0 mph 94% 0.02 in meteobridge W/m2
10:04 34.9 °F 33.1 °F 30.02 in Calm   3.0 mph 93% 0.02 in meteobridge W/m2
10:09 34.5 °F 32.7 °F 30.02 in Calm   1.0 mph 93% 0.01 in meteobridge W/m2
10:14 34.3 °F 32.5 °F 30.02 in Calm     93% 0.01 in meteobridge W/m2
10:19 34.2 °F 32.0 °F 30.03 in NW 2.0 mph 4.0 mph 92% 0.01 in meteobridge W/m2
10:24 33.8 °F 31.6 °F 30.03 in NW 2.0 mph 3.0 mph 92% 0.01 in meteobridge W/m2
10:29 33.6 °F 31.3 °F 30.02 in West 0.9 mph 5.0 mph 91% 0.01 in meteobridge W/m2
10:34 33.4 °F 31.3 °F 30.03 in Calm   1.0 mph 92% 0.01 in meteobridge W/m2
10:39 33.4 °F 31.6 °F 30.03 in Calm   4.0 mph 93% 0.01 in meteobridge W/m2
10:44 33.4 °F 31.6 °F 30.03 in Calm     93% 0.00 in meteobridge W/m2
10:49 33.4 °F 31.3 °F 30.03 in WNW 2.0 mph 6.0 mph 92% 0.00 in meteobridge W/m2
10:54 33.3 °F 31.1 °F 30.03 in Calm   1.0 mph 92% 0.00 in meteobridge W/m2
10:59 33.3 °F 31.5 °F 30.03 in Calm     93% 0.00 in meteobridge W/m2
11:04 33.3 °F 31.1 °F 30.03 in North 2.9 mph 5.0 mph 92% 0.00 in meteobridge W/m2
11:09 33.1 °F 31.1 °F 30.03 in Calm     92% 0.00 in meteobridge W/m2
11:14 33.3 °F 31.1 °F 30.04 in Calm   5.0 mph 92% 0.00 in meteobridge W/m2
11:19 33.3 °F 30.6 °F 30.04 in NNW 2.9 mph 6.0 mph 90% 0.00 in meteobridge W/m2
11:24 33.3 °F 30.9 °F 30.04 in Calm   1.0 mph 91% 0.00 in meteobridge W/m2
11:29 33.3 °F 30.6 °F 30.04 in Calm     90% 0.00 in meteobridge W/m2
11:34 33.4 °F 31.1 °F 30.04 in WNW 0.9 mph 1.0 mph 91% 0.00 in meteobridge W/m2
11:39 33.6 °F 30.9 °F 30.05 in Calm   1.0 mph 90% 0.00 in meteobridge W/m2
11:44 33.4 °F 29.7 °F 30.05 in Calm   7.0 mph 86% 0.00 in meteobridge W/m2
11:49 33.1 °F 28.4 °F 30.04 in WNW 2.9 mph 8.0 mph 83% 0.00 in meteobridge W/m2
11:54 32.5 °F 28.8 °F 30.05 in Calm   4.0 mph 86% 0.00 in meteobridge W/m2
11:59 32.4 °F 27.9 °F 30.05 in NW 4.0 mph 7.0 mph 83% 0.00 in meteobridge W/m2
12:04 32.2 °F 27.9 °F 30.06 in Calm   2.0 mph 84% 0.00 in meteobridge W/m2
12:09 32.2 °F 28.2 °F 30.06 in Calm   2.0 mph 85% 0.00 in meteobridge W/m2
12:14 32.2 °F 27.3 °F 30.05 in NW 6.0 mph 6.0 mph 82% 0.00 in meteobridge W/m2
12:19 31.8 °F 27.0 °F 30.05 in Calm   5.0 mph 82% 0.00 in meteobridge W/m2
12:24 31.8 °F 27.3 °F 30.05 in Calm   3.0 mph 83% 0.00 in meteobridge W/m2
12:29 32.4 °F 27.9 °F 30.04 in Calm   6.0 mph 83% 0.00 in meteobridge W/m2
12:34 32.5 °F 27.7 °F 30.05 in Calm   2.0 mph 82% 0.00 in meteobridge W/m2
12:39 32.5 °F 27.1 °F 30.05 in NE 2.9 mph 7.0 mph 80% 0.00 in meteobridge W/m2
12:44 32.2 °F 27.3 °F 30.04 in Calm   7.0 mph 82% 0.00 in meteobridge W/m2
12:49 32.2 °F 26.8 °F 30.04 in Calm   6.0 mph 80% 0.00 in meteobridge W/m2
12:54 32.2 °F 27.0 °F 30.04 in NW 2.0 mph 7.0 mph 81% 0.00 in meteobridge W/m2
12:59 32.2 °F 26.4 °F 30.04 in Calm   2.0 mph 79% 0.00 in meteobridge W/m2
13:04 32.2 °F 26.8 °F 30.04 in Calm   2.0 mph 80% 0.00 in meteobridge W/m2
13:09 32.2 °F 26.1 °F 30.04 in Calm   2.0 mph 78% 0.00 in meteobridge W/m2
13:14 32.5 °F 25.5 °F 30.03 in East 6.0 mph 6.0 mph 75% 0.00 in meteobridge W/m2
13:19 32.4 °F 25.3 °F 30.03 in West 8.1 mph 9.0 mph 75% 0.00 in meteobridge W/m2
13:24 32.5 °F 24.8 °F 30.03 in North 2.9 mph 10.0 mph 73% 0.00 in meteobridge W/m2
13:29 32.5 °F 24.8 °F 30.03 in West 2.0 mph 6.0 mph 73% 0.00 in meteobridge W/m2
13:34 32.5 °F 24.3 °F 30.03 in Calm   4.0 mph 71% 0.00 in meteobridge W/m2
13:39 32.5 °F 24.4 °F 30.03 in WNW 2.0 mph 4.0 mph 72% 0.00 in meteobridge W/m2
13:44 32.7 °F 24.4 °F 30.03 in North 2.9 mph 3.0 mph 71% 0.00 in meteobridge W/m2
13:49 32.7 °F 24.4 °F 30.03 in Calm   3.0 mph 71% 0.00 in meteobridge W/m2
13:54 32.5 °F 23.9 °F 30.03 in Calm   5.0 mph 70% 0.00 in meteobridge W/m2
13:59 32.5 °F 24.3 °F 30.03 in WNW 2.9 mph 3.0 mph 71% 0.00 in meteobridge W/m2
14:04 32.4 °F 23.4 °F 30.03 in Calm   5.0 mph 69% 0.00 in meteobridge W/m2
14:09 32.4 °F 23.4 °F 30.04 in NW 2.0 mph 10.0 mph 69% 0.00 in meteobridge W/m2
14:14 32.4 °F 23.7 °F 30.04 in NW 4.9 mph 5.0 mph 70% 0.00 in meteobridge W/m2
14:19 32.4 °F 22.3 °F 30.04 in West 4.0 mph 9.0 mph 66% 0.00 in meteobridge W/m2
14:24 32.2 °F 22.8 °F 30.04 in Calm   6.0 mph 68% 0.00 in meteobridge W/m2
14:29 32.2 °F 22.1 °F 30.04 in Calm   3.0 mph 66% 0.00 in meteobridge W/m2
14:34 32.4 °F 22.6 °F 30.05 in Calm   4.0 mph 67% 0.00 in meteobridge W/m2
14:39 32.5 °F 22.5 °F 30.05 in Calm   5.0 mph 66% 0.00 in meteobridge W/m2
14:44 32.5 °F 23.2 °F 30.05 in Calm   3.0 mph 68% 0.00 in meteobridge W/m2
14:49 32.5 °F 22.8 °F 30.05 in ENE 2.9 mph 5.0 mph 67% 0.00 in meteobridge W/m2
14:54 32.4 °F 22.3 °F 30.06 in WNW 0.9 mph 6.0 mph 66% 0.00 in meteobridge W/m2
14:59 32.4 °F 22.6 °F 30.05 in Calm   3.0 mph 67% 0.00 in meteobridge W/m2
15:04 32.2 °F 22.1 °F 30.06 in WNW 2.0 mph 7.0 mph 66% 0.00 in meteobridge W/m2
15:09 31.8 °F 21.7 °F 30.06 in Calm   5.0 mph 66% 0.00 in meteobridge W/m2
15:14 31.8 °F 21.7 °F 30.06 in NW 2.0 mph 7.0 mph 66% 0.00 in meteobridge W/m2
15:19 31.6 °F 21.9 °F 30.07 in Calm   8.0 mph 67% 0.00 in meteobridge W/m2
15:24 31.5 °F 21.0 °F 30.07 in West 2.0 mph 10.0 mph 65% 0.00 in meteobridge W/m2
15:29 31.5 °F 21.4 °F 30.07 in Calm   5.0 mph 66% 0.00 in meteobridge W/m2
15:34 31.5 °F 21.0 °F 30.07 in Calm   4.0 mph 65% 0.00 in meteobridge W/m2
15:39 31.3 °F 20.5 °F 30.07 in Calm   4.0 mph 64% 0.00 in meteobridge W/m2
15:44 31.1 °F 21.0 °F 30.07 in Calm   9.0 mph 66% 0.00 in meteobridge W/m2
15:49 30.9 °F 20.8 °F 30.08 in Calm   5.0 mph 66% 0.00 in meteobridge W/m2
15:54 30.7 °F 19.9 °F 30.07 in NW 8.1 mph 8.0 mph 64% 0.00 in meteobridge W/m2
15:59 30.6 °F 19.0 °F 30.08 in NNW 2.0 mph 8.0 mph 62% 0.00 in meteobridge W/m2
16:04 30.6 °F 19.8 °F 30.07 in Calm   5.0 mph 64% 0.00 in meteobridge W/m2
16:09 30.4 °F 19.6 °F 30.07 in NW 6.0 mph 6.0 mph 64% 0.00 in meteobridge W/m2
16:14 30.2 °F 18.7 °F 30.08 in Calm   3.0 mph 62% 0.00 in meteobridge W/m2
16:19 30.0 °F 18.5 °F 30.09 in Calm   6.0 mph 62% 0.00 in meteobridge W/m2
16:24 30.0 °F 19.0 °F 30.09 in Calm   2.0 mph 63% 0.00 in meteobridge W/m2
16:29 30.0 °F 19.0 °F 30.09 in Calm   8.0 mph 63% 0.00 in meteobridge W/m2
16:34 30.0 °F 19.0 °F 30.09 in Calm   5.0 mph 63% 0.00 in meteobridge W/m2
16:39 29.8 °F 19.2 °F 30.09 in NW 4.0 mph 8.0 mph 64% 0.00 in meteobridge W/m2
16:44 29.8 °F 18.9 °F 30.09 in NE 2.9 mph 6.0 mph 63% 0.00 in meteobridge W/m2
16:49 29.7 °F 18.7 °F 30.10 in Calm   7.0 mph 63% 0.00 in meteobridge W/m2
16:54 29.5 °F 17.8 °F 30.09 in NE 0.9 mph 12.0 mph 61% 0.00 in meteobridge W/m2
16:59 29.3 °F 18.3 °F 30.10 in NNE 2.0 mph 11.0 mph 63% 0.00 in meteobridge W/m2
17:04 29.1 °F 17.8 °F 30.09 in Calm   7.0 mph 62% 0.00 in meteobridge W/m2
17:09 28.9 °F 17.6 °F 30.09 in Calm   7.0 mph 62% 0.00 in meteobridge W/m2
17:14 28.8 °F 17.4 °F 30.10 in Calm   9.0 mph 62% 0.00 in meteobridge W/m2
17:19 28.8 °F 18.1 °F 30.11 in West 2.0 mph 4.0 mph 64% 0.00 in meteobridge W/m2
17:24 28.6 °F 17.6 °F 30.11 in WNW 2.0 mph 6.0 mph 63% 0.00 in meteobridge W/m2
17:29 28.6 °F 18.0 °F 30.11 in WNW 2.9 mph 4.0 mph 64% 0.00 in meteobridge W/m2
17:34 28.4 °F 17.8 °F 30.12 in NW 2.9 mph 4.0 mph 64% 0.00 in meteobridge W/m2
17:39 28.2 °F 17.2 °F 30.12 in NNW 0.9 mph 11.0 mph 63% 0.00 in meteobridge W/m2
17:44 28.2 °F 16.9 °F 30.12 in Calm   3.0 mph 62% 0.00 in meteobridge W/m2
17:49 28.0 °F 16.7 °F 30.12 in Calm   2.0 mph 62% 0.00 in meteobridge W/m2
17:54 28.0 °F 16.7 °F 30.12 in NW 0.9 mph 7.0 mph 62% 0.00 in meteobridge W/m2
17:59 27.9 °F 16.5 °F 30.12 in Calm   6.0 mph 62% 0.00 in meteobridge W/m2
18:04 27.9 °F 15.4 °F 30.13 in Calm   3.0 mph 59% 0.00 in meteobridge W/m2
18:09 27.7 °F 15.3 °F 30.14 in Calm   3.0 mph 59% 0.00 in meteobridge W/m2
18:14 27.7 °F 14.9 °F 30.14 in Calm   10.0 mph 58% 0.00 in meteobridge W/m2
18:19 27.7 °F 14.9 °F 30.14 in NNW 2.9 mph 7.0 mph 58% 0.00 in meteobridge W/m2
18:24 27.3 °F 14.2 °F 30.14 in Calm   6.0 mph 57% 0.00 in meteobridge W/m2
18:29 27.3 °F 14.2 °F 30.14 in NW 4.0 mph 4.0 mph 57% 0.00 in meteobridge W/m2
18:34 27.1 °F 14.7 °F 30.15 in Calm     59% 0.00 in meteobridge W/m2
18:39 27.1 °F 14.4 °F 30.15 in Calm   6.0 mph 58% 0.00 in meteobridge W/m2
18:44 27.0 °F 14.5 °F 30.15 in Calm     59% 0.00 in meteobridge W/m2
18:49 27.0 °F 14.9 °F 30.15 in NW 4.9 mph 7.0 mph 60% 0.00 in meteobridge W/m2
18:54 26.8 °F 14.7 °F 30.15 in WNW 2.9 mph 3.0 mph 60% 0.00 in meteobridge W/m2
18:59 26.8 °F 14.7 °F 30.15 in Calm   2.0 mph 60% 0.00 in meteobridge W/m2
19:04 26.8 °F 15.4 °F 30.15 in West 2.0 mph 3.0 mph 62% 0.00 in meteobridge W/m2
19:09 26.6 °F 15.3 °F 30.14 in Calm     62% 0.00 in meteobridge W/m2
19:14 26.4 °F 14.7 °F 30.15 in Calm   4.0 mph 61% 0.00 in meteobridge W/m2
19:19 26.4 °F 14.7 °F 30.15 in Calm   1.0 mph 61% 0.00 in meteobridge W/m2
19:24 26.2 °F 15.1 °F 30.16 in NNW 4.9 mph 6.0 mph 62% 0.00 in meteobridge W/m2
19:29 26.1 °F 14.0 °F 30.16 in Calm   8.0 mph 60% 0.00 in meteobridge W/m2
19:34 26.1 °F 13.3 °F 30.16 in WNW 4.9 mph 5.0 mph 58% 0.00 in meteobridge W/m2
19:39 26.1 °F 12.6 °F 30.15 in Calm   4.0 mph 56% 0.00 in meteobridge W/m2
19:44 25.9 °F 12.7 °F 30.15 in Calm   2.0 mph 57% 0.00 in meteobridge W/m2
19:49 25.9 °F 12.7 °F 30.15 in Calm   10.0 mph 57% 0.00 in meteobridge W/m2
19:54 25.7 °F 12.2 °F 30.15 in Calm     56% 0.00 in meteobridge W/m2
19:59 25.5 °F 12.0 °F 30.16 in Calm   1.0 mph 56% 0.00 in meteobridge W/m2
20:04 25.5 °F 12.0 °F 30.16 in Calm     56% 0.00 in meteobridge W/m2
20:09 25.3 °F 12.2 °F 30.16 in Calm   1.0 mph 57% 0.00 in meteobridge W/m2
20:14 25.3 °F 11.8 °F 30.17 in North 2.9 mph 4.0 mph 56% 0.00 in meteobridge W/m2
20:19 25.2 °F 12.4 °F 30.17 in Calm     58% 0.00 in meteobridge W/m2
20:24 25.2 °F 11.3 °F 30.17 in Calm   4.0 mph 55% 0.00 in meteobridge W/m2
20:29 25.0 °F 11.1 °F 30.18 in Calm   7.0 mph 55% 0.00 in meteobridge W/m2
20:34 25.0 °F 12.4 °F 30.17 in Calm     58% 0.00 in meteobridge W/m2
20:39 25.0 °F 11.8 °F 30.18 in Calm   1.0 mph 57% 0.00 in meteobridge W/m2
20:44 24.6 °F 11.5 °F 30.18 in Calm     57% 0.00 in meteobridge W/m2
20:49 24.6 °F 12.0 °F 30.18 in Calm   1.0 mph 58% 0.00 in meteobridge W/m2
20:54 24.4 °F 10.9 °F 30.19 in Calm   3.0 mph 56% 0.00 in meteobridge W/m2
20:59 24.4 °F 11.5 °F 30.19 in Calm     57% 0.00 in meteobridge W/m2
21:04 24.3 °F 11.7 °F 30.19 in Calm     58% 0.00 in meteobridge W/m2
21:09 24.3 °F 11.3 °F 30.19 in Calm     57% 0.00 in meteobridge W/m2
21:14 24.3 °F 11.3 °F 30.20 in Calm   2.0 mph 57% 0.00 in meteobridge W/m2
21:18 24.3 °F 12.0 °F 30.20 in Calm     59% 0.00 in meteobridge W/m2
21:24 24.1 °F 11.8 °F 30.20 in Calm     59% 0.00 in meteobridge W/m2
21:29 24.1 °F 11.8 °F 30.19 in Calm     59% 0.00 in meteobridge W/m2
21:34 23.9 °F 11.7 °F 30.19 in Calm   1.0 mph 59% 0.00 in meteobridge W/m2
21:39 23.7 °F 11.1 °F 30.19 in Calm     58% 0.00 in meteobridge W/m2
21:44 23.7 °F 11.5 °F 30.19 in Calm     59% 0.00 in meteobridge W/m2
21:49 23.5 °F 11.3 °F 30.19 in Calm     59% 0.00 in meteobridge W/m2
21:54 23.5 °F 11.7 °F 30.19 in Calm     60% 0.00 in meteobridge W/m2
21:59 23.4 °F 11.8 °F 30.19 in Calm     61% 0.00 in meteobridge W/m2
22:04 23.4 °F 11.5 °F 30.19 in Calm     60% 0.00 in meteobridge W/m2
22:09 23.2 °F 12.0 °F 30.20 in Calm     62% 0.00 in meteobridge W/m2
22:14 23.0 °F 12.2 °F 30.20 in Calm     63% 0.00 in meteobridge W/m2
22:19 22.8 °F 12.7 °F 30.20 in Calm     65% 0.00 in meteobridge W/m2
22:24 22.6 °F 12.9 °F 30.21 in Calm     66% 0.00 in meteobridge W/m2
22:29 22.6 °F 12.7 °F 30.21 in Calm     65% 0.00 in meteobridge W/m2
22:34 22.5 °F 12.2 °F 30.21 in Calm     64% 0.00 in meteobridge W/m2
22:39 22.5 °F 11.5 °F 30.21 in Calm     62% 0.00 in meteobridge W/m2
22:44 22.5 °F 11.5 °F 30.21 in Calm     62% 0.00 in meteobridge W/m2
22:49 22.5 °F 11.5 °F 30.20 in Calm     62% 0.00 in meteobridge W/m2
22:54 22.5 °F 12.2 °F 30.21 in Calm     64% 0.00 in meteobridge W/m2
22:59 22.3 °F 12.0 °F 30.20 in Calm     64% 0.00 in meteobridge W/m2
23:04 22.3 °F 12.4 °F 30.21 in Calm     65% 0.00 in meteobridge W/m2
23:09 21.9 °F 12.4 °F 30.20 in Calm     66% 0.00 in meteobridge W/m2
23:14 21.9 °F 12.4 °F 30.20 in Calm     66% 0.00 in meteobridge W/m2
23:19 21.7 °F 12.6 °F 30.20 in Calm     67% 0.00 in meteobridge W/m2
23:24 21.6 °F 12.6 °F 30.20 in Calm     68% 0.00 in meteobridge W/m2
23:29 21.4 °F 12.4 °F 30.20 in Calm     68% 0.00 in meteobridge W/m2
23:34 21.4 °F 12.2 °F 30.20 in Calm     67% 0.00 in meteobridge W/m2
23:39 21.2 °F 11.3 °F 30.20 in Calm     65% 0.00 in meteobridge W/m2
23:44 21.0 °F 11.5 °F 30.20 in Calm     66% 0.00 in meteobridge W/m2
23:48 21.0 °F 11.8 °F 30.20 in Calm     67% 0.00 in meteobridge W/m2
23:53 21.0 °F 11.8 °F 30.20 in Calm     67% 0.00 in meteobridge W/m2
23:59 21.0 °F 11.1 °F 30.20 in Calm   1.0 mph 65% 0.00 in meteobridge W/m2
EllijayWeather
Compliments of Weather Underground - 2.5 mb